Вернуться в каталог

LINGQIAO VIDEO A

АктивенНаукаSSO
NORAD 40959·PAYLOAD·🇨🇳 China

Запущен Oct 7, 2015 с Jiuquan Satellite Launch Center

Loading…

Ближайшие Пролёты (ближайшие 24 часа)

TLE

СвежийSource: Space-Track

Эпоха: Sep 14, 2026, 23:06 UTC

1 40959U 15057B   26257.96290748  .00000730  00000-0  10904-3 0  9999
2 40959  97.6704 248.3775 0016463 343.0190  17.0468 14.77492417588663

Отслеживайте LINGQIAO VIDEO A в реальном времени с AllMySat

Download on the App Store